DateTimeUTC,F1_A11,F1_S11,BsB_S11,BsG_S11,BsR_S11,BbsB_S11,BbsG_S11,BbsR_S11,BaB_A11,BaG_A11,BaR_A11,T_S11,U_S11,P_S11,T1_A11
2020-07-31T00:00:00Z,00000380,20000600,,,,,,,,,,24.5,02.4,0671.4,30.9
2020-07-31T00:01:00Z,00000380,20000600,,,,,,,,,,24.5,02.3,0671.4,30.9
2020-07-31T00:02:00Z,00000380,20000600,,,,,,,,,,24.5,02.2,0671.4,30.9
2020-07-31T00:03:00Z,00000380,60000600,,,,,,,,,,24.5,02.2,0671.4,30.9
2020-07-31T00:04:00Z,00000380,40000600,0000.87,0000.52,-000.25,0000.39,-000.37,-000.40,0000.04,-000.12,0000.01,24.3,02.4,0672.4,30.9
2020-07-31T00:05:00Z,00000380,00000600,0000.50,0000.52,0000.08,-000.17,-000.35,-000.12,-000.11,0000.09,0000.07,24.3,02.4,0672.5,30.9
2020-07-31T00:06:00Z,00000380,00000600,0001.71,0000.28,0000.03,0000.27,-000.19,-000.33,0000.06,-000.02,-000.12,24.3,02.4,0672.5,30.9
2020-07-31T00:07:00Z,00000380,00000600,0000.21,0000.64,0000.09,0000.23,0000.33,-000.18,-000.15,-000.06,0000.13,24.2,02.3,0672.5,30.9
2020-07-31T00:08:00Z,00000380,00000600,0000.70,0000.25,-000.13,-000.26,-000.16,-000.48,0000.15,-000.06,-000.07,24.2,02.3,0672.5,30.9
2020-07-31T00:09:00Z,00000380,00000600,0000.79,0000.17,-000.13,-000.05,-000.07,-000.02,-000.07,0000.11,0000.13,24.2,02.3,0672.5,30.9
2020-07-31T00:10:00Z,00000380,00000600,0000.63,0000.97,-000.37,-000.49,0000.14,-000.33,0000.04,0000.04,-000.12,24.2,02.3,0672.5,30.9
2020-07-31T00:11:00Z,00000380,00000600,0000.98,0001.02,-000.15,-000.09,0000.19,-000.72,-000.14,-000.10,-000.10,24.2,02.2,0672.5,30.9
2020-07-31T00:12:00Z,00000380,00000600,0001.55,0000.39,0000.21,-000.08,0000.13,-000.29,-000.06,-000.01,0000.17,24.2,02.2,0672.5,30.9
2020-07-31T00:13:00Z,00000380,00000600,0000.02,0000.27,0000.28,-000.42,-000.22,-000.05,0000.09,-000.09,0000.07,24.2,02.2,0672.5,30.9
2020-07-31T00:14:00Z,00000380,00000600,0001.60,0001.21,0000.25,0000.51,0000.16,0000.48,-000.05,0000.20,0000.04,24.1,02.2,0672.5,30.9
2020-07-31T00:15:00Z,00000380,00000600,0000.68,0000.60,-000.07,-000.15,0000.19,-000.38,0000.08,-000.02,-000.13,24.1,02.2,0672.5,30.9
2020-07-31T00:16:00Z,00000380,00000600,0000.89,0001.11,-000.34,-000.49,-000.15,0000.17,0000.07,-000.04,0000.11,24.1,02.2,0672.5,30.9
2020-07-31T00:17:00Z,00000380,00000600,0000.98,0000.52,0000.08,-000.04,0000.14,0000.62,0000.06,0000.01,0000.01,24.1,02.2,0672.5,30.9
2020-07-31T00:18:00Z,00000380,00000600,0001.63,0000.39,0000.25,-000.47,-000.04,0000.08,-000.17,-000.07,-000.09,24.1,02.2,0672.5,30.9
2020-07-31T00:19:00Z,00000380,00000600,0000.68,0000.67,0000.55,-000.32,-000.04,0000.13,0000.08,0000.05,0000.14,24.1,02.1,0672.5,30.9
2020-07-31T00:20:00Z,00000380,00000600,0001.14,0000.28,-000.29,-000.51,0000.21,0000.15,-000.10,0000.04,-000.18,24.1,02.1,0672.5,30.9
2020-07-31T00:21:00Z,00000380,00000600,0000.64,0000.45,0000.10,0000.48,0000.01,0000.09,-000.06,-000.22,-000.01,24.1,02.0,0672.5,30.9
2020-07-31T00:22:00Z,00000380,00000600,-000.19,0000.52,-000.07,0000.32,0000.09,-000.25,-000.11,-000.02,0000.07,24.1,02.0,0672.5,30.9
2020-07-31T00:23:00Z,00000380,00000600,0000.79,0000.79,0000.46,0000.17,0000.00,0000.34,0000.01,0000.15,0000.01,24.1,01.9,0672.5,30.9
2020-07-31T00:24:00Z,00000380,00000600,0000.46,0000.15,0000.08,0000.02,-000.27,-000.37,0000.02,-000.04,0000.08,24.1,02.0,0672.5,30.9
2020-07-31T00:25:00Z,00000380,00000600,0000.92,0000.25,0000.11,-000.19,0000.05,-000.53,0000.08,0000.04,-000.08,24.0,01.9,0672.5,30.9
2020-07-31T00:26:00Z,00000380,00000600,0000.51,0000.91,0000.09,0000.68,0000.02,0000.71,-000.16,-000.14,-000.05,24.0,01.9,0672.5,30.9
2020-07-31T00:27:00Z,00000380,00000600,0001.67,0000.64,0000.02,-000.65,0000.15,-000.19,-000.07,-000.07,0000.03,24.0,01.8,0672.5,30.9
2020-07-31T00:28:00Z,00000380,00000600,0000.16,0000.30,-000.47,-000.19,0000.04,0000.00,0000.12,0000.13,0000.18,24.0,01.9,0672.5,30.9
2020-07-31T00:29:00Z,00000380,00000600,0000.90,0000.49,-000.01,-000.51,0000.30,-000.14,-000.07,0000.09,-000.07,24.0,01.8,0672.5,30.9
2020-07-31T00:30:00Z,00000380,00000600,0001.34,0000.47,-000.06,0000.55,0000.03,0000.04,0000.25,-000.07,0000.12,24.0,01.8,0672.5,30.9
2020-07-31T00:31:00Z,00000380,00000600,0001.23,0000.39,0000.40,-000.11,-000.30,-000.04,-000.07,0000.22,-000.05,24.0,01.8,0672.5,30.9
2020-07-31T00:32:00Z,00000380,00000600,0001.39,0000.32,0000.02,0000.13,0000.33,0000.37,-000.04,-000.13,0000.01,24.0,01.8,0672.5,30.9
2020-07-31T00:33:00Z,00000380,00000600,0000.23,0000.16,0000.01,-000.62,0000.15,-000.21,-000.01,0000.01,0000.06,23.9,01.7,0672.5,30.9
2020-07-31T00:34:00Z,00000380,00000600,0000.11,0001.20,-000.27,-000.65,-000.11,-000.17,0000.03,0000.01,0000.05,23.9,01.8,0672.5,30.9
2020-07-31T00:35:00Z,00000380,00000600,0000.13,0000.54,0000.01,-000.57,-000.04,0000.21,-000.03,-000.11,-000.06,23.9,01.7,0672.5,30.9
2020-07-31T00:36:00Z,00000380,00010600,0000.39,0000.45,-000.32,0000.45,0000.15,-000.00,-000.02,0000.23,-000.01,23.9,01.7,0672.5,30.9
2020-07-31T00:37:00Z,00000380,00000600,0002.27,0000.57,0000.47,-000.21,-000.05,-000.10,0000.15,-000.03,-000.01,23.9,01.7,0672.5,30.9
2020-07-31T00:38:00Z,00000380,00000600,0000.30,0001.03,0000.44,-000.27,-000.13,-000.10,0000.06,-000.05,0000.13,23.9,01.8,0672.5,30.9
2020-07-31T00:39:00Z,00000380,00000600,0000.75,0001.14,-000.09,-000.04,0000.09,-000.15,-000.07,0000.08,-000.00,23.9,01.8,0672.5,30.9
2020-07-31T00:40:00Z,00000380,00000600,0000.66,0000.62,-000.83,-000.26,0000.41,0000.17,-000.09,-000.12,-000.02,23.9,01.8,0672.5,30.9
2020-07-31T00:41:00Z,00000380,00000600,0000.86,0000.92,0000.12,-000.17,-000.05,0000.23,-000.17,-000.08,-000.14,23.9,01.6,0672.5,30.9
2020-07-31T00:42:00Z,00000380,00000600,0001.79,0000.26,0000.08,-000.85,-000.35,-000.16,0000.02,0000.06,0000.09,23.9,01.6,0672.5,30.9
2020-07-31T00:43:00Z,00000380,00000600,0001.83,0000.14,0000.08,-000.46,0000.12,-000.25,-000.00,0000.01,-000.02,23.8,01.5,0672.5,30.9
2020-07-31T00:44:00Z,00000380,00000600,0000.12,0000.27,-000.03,-000.22,-000.03,-000.03,-000.08,-000.13,0000.02,23.8,01.4,0672.5,30.9
2020-07-31T00:45:00Z,00000380,00000600,0000.92,0000.77,0000.03,-001.07,0000.15,-000.27,0000.11,0000.05,0000.14,23.8,01.5,0672.5,30.9
2020-07-31T00:46:00Z,00000380,00000600,0000.85,0000.60,0000.34,0000.03,-000.23,0000.43,0000.12,0000.12,-000.02,23.8,01.6,0672.5,30.9
2020-07-31T00:47:00Z,00000380,00000600,-000.84,0000.63,-000.02,0000.28,-000.00,-000.05,0000.01,0000.02,0000.04,23.8,01.7,0672.5,30.9
2020-07-31T00:48:00Z,00000380,00000600,0000.15,0000.44,0000.12,0000.50,-000.44,-000.03,0000.18,0000.13,-000.02,23.8,01.7,0672.5,30.9
2020-07-31T00:49:00Z,00000380,00000600,0000.04,0000.77,-000.06,-000.31,-000.21,-000.29,-000.20,-000.16,0000.02,23.8,01.6,0672.5,30.9
2020-07-31T00:50:00Z,00000380,00000600,0001.35,0000.46,0000.21,-000.48,-000.39,0000.05,0000.10,0000.04,0000.07,23.8,01.7,0672.5,30.9
2020-07-31T00:51:00Z,00000380,00000600,-000.64,0000.62,-000.02,-000.04,-000.00,-000.12,-000.04,0000.14,-000.10,23.8,01.6,0672.5,30.9
2020-07-31T00:52:00Z,00000380,00000600,0001.25,-000.45,0000.79,-000.78,-000.32,0000.02,-000.09,-000.03,0000.02,23.8,01.6,0672.5,30.9
2020-07-31T00:53:00Z,00000380,00000600,-000.11,0000.51,0000.18,-000.35,0000.03,-000.02,-000.09,-000.24,0000.06,23.8,01.5,0672.5,30.9
2020-07-31T00:54:00Z,00000380,00000600,-000.24,0000.63,-000.28,0000.55,0000.17,0000.31,0000.11,0000.03,-000.02,23.8,01.5,0672.5,30.9
2020-07-31T00:55:00Z,00000380,00000600,0001.20,0000.20,0000.02,0000.18,-000.12,-000.01,-000.18,-000.05,-000.20,23.8,01.4,0672.5,30.9
2020-07-31T00:56:00Z,00000380,00000600,0002.10,0000.93,-000.19,-000.83,0000.35,-000.05,-000.03,-000.11,0000.09,23.8,01.3,0672.5,30.9
2020-07-31T00:57:00Z,00000380,40000600,,,,,,,,,,23.8,01.3,0672.6,30.9
2020-07-31T00:58:00Z,00000380,60000600,,,,,,,,,,23.9,01.4,0671.5,30.9
2020-07-31T00:59:00Z,00000380,20000600,,,,,,,,,,24.0,01.3,0671.5,30.9
2020-07-31T01:00:00Z,00000380,20000600,,,,,,,,,,24.0,01.3,0671.5,30.9
2020-07-31T01:01:00Z,00000380,20000600,,,,,,,,,,24.1,01.2,0671.5,30.9
2020-07-31T01:02:00Z,00000380,20000600,,,,,,,,,,24.1,01.1,0671.5,30.9
2020-07-31T01:03:00Z,00000380,60000600,,,,,,,,,,24.1,01.1,0671.5,30.9
2020-07-31T01:04:00Z,00000380,41000600,0001.49,0000.52,0000.70,-000.04,0000.02,0000.06,0000.07,-000.21,0000.04,24.0,01.1,0672.5,30.9
2020-07-31T01:05:00Z,00000380,01000600,-000.22,0000.78,0000.42,0000.47,0000.05,-000.23,0000.14,0000.35,0000.24,23.9,01.2,0672.6,30.9
2020-07-31T01:06:00Z,00000380,00000600,0000.61,-000.16,0000.43,-000.51,-000.44,0000.62,0000.03,0000.16,-000.08,23.9,01.3,0672.6,30.9
2020-07-31T01:07:00Z,00000380,01000600,0000.49,0001.09,0000.06,-000.84,0000.08,0000.10,0000.20,-000.12,0000.25,23.9,01.3,0672.5,30.9
2020-07-31T01:08:00Z,00000380,00000600,0001.77,0000.72,0000.41,-000.39,-000.28,0000.30,-000.16,0000.08,-000.19,23.9,01.3,0672.6,30.9
2020-07-31T01:09:00Z,00000380,01000600,0000.96,0000.54,0000.44,0000.75,0000.09,0000.06,0000.03,0000.09,0000.05,23.8,01.2,0672.5,30.9
2020-07-31T01:10:00Z,00000380,01000600,0000.68,0000.46,0000.00,-000.72,-000.19,0000.07,-000.01,-000.12,-000.03,23.8,01.3,0672.6,30.9
2020-07-31T01:11:00Z,00000380,01000600,0001.43,0000.42,0000.60,-000.15,-000.08,0000.34,0000.19,0000.08,0000.12,23.8,01.3,0672.6,30.9
2020-07-31T01:12:00Z,00000380,00000600,0000.28,0000.24,0000.31,0000.45,0000.18,-000.13,-000.08,0000.01,0000.04,23.8,01.4,0672.5,30.9
2020-07-31T01:13:00Z,00000380,01000600,0001.10,0000.22,0000.20,0001.00,-000.20,0000.03,-000.03,0000.15,0000.14,23.8,01.3,0672.5,30.9
2020-07-31T01:14:00Z,00000380,01000600,0001.19,0000.56,0000.37,-000.08,-000.13,0000.37,0000.25,0000.04,-000.05,23.8,01.3,0672.6,30.9
2020-07-31T01:15:00Z,00000380,01000600,0001.75,0000.70,0000.25,-000.59,-000.23,-000.14,-000.04,-000.07,-000.03,23.8,01.3,0672.6,30.9
2020-07-31T01:16:00Z,00000380,01000600,0000.83,0000.26,0000.15,-000.17,-000.06,0000.39,-000.00,-000.02,0000.18,23.8,01.4,0672.6,30.9
2020-07-31T01:17:00Z,00000380,00000600,0001.46,0000.80,-000.21,-000.57,-000.53,-000.02,0000.12,0000.17,-000.10,23.8,01.4,0672.6,30.9
2020-07-31T01:18:00Z,00000380,00000600,0001.62,0000.56,0000.41,-000.43,0000.10,0000.04,0000.31,0000.41,0000.45,23.8,01.5,0672.6,30.9
2020-07-31T01:19:00Z,00000380,00000600,0001.07,0000.14,0000.59,-000.41,-000.63,-000.01,-000.01,-000.11,-000.19,23.8,01.7,0672.6,30.9
2020-07-31T01:20:00Z,00000380,00000600,0001.68,0000.65,0000.50,-000.16,-000.08,-000.04,-000.08,0000.03,0000.04,23.8,01.6,0672.7,30.9
2020-07-31T01:21:00Z,00000380,00000600,0000.93,-000.05,-000.15,-000.41,0000.04,0000.05,0000.14,0000.06,0000.09,23.8,01.5,0672.6,30.9
2020-07-31T01:22:00Z,00000380,00000600,0001.01,0000.73,0000.62,0000.10,-000.29,0000.14,0000.09,0000.15,-000.04,23.8,01.6,0672.6,30.9
2020-07-31T01:23:00Z,00000380,00000600,0001.59,0000.55,0000.31,0000.79,0000.45,0000.14,0000.15,0000.05,0000.06,23.8,01.8,0672.6,30.9
2020-07-31T01:24:00Z,00000380,00000600,0000.67,0001.15,0000.65,0000.26,-000.02,-000.20,0000.03,0000.17,0000.12,23.8,01.7,0672.7,30.9
2020-07-31T01:25:00Z,00000380,00000600,0000.12,0000.20,0000.16,-000.63,0000.13,0000.04,0000.04,-000.10,-000.08,23.7,01.7,0672.7,30.9
2020-07-31T01:26:00Z,00000380,00000600,0001.18,0000.62,0000.19,0000.19,-000.28,-000.02,-000.13,0000.16,0000.11,23.7,01.8,0672.7,30.9
2020-07-31T01:27:00Z,00000380,00000600,0001.21,0000.74,0000.54,0000.24,0000.24,-000.02,0000.29,0000.04,0000.22,23.7,01.8,0672.6,30.9
2020-07-31T01:28:00Z,00000380,00000600,0000.32,0000.67,0000.73,-000.53,-000.62,0000.21,0000.27,0000.25,0000.13,23.7,01.9,0672.7,30.9
2020-07-31T01:29:00Z,00000380,00000600,0000.41,0000.51,-000.15,-000.61,0000.12,-000.08,0000.15,0000.07,0000.07,23.7,02.0,0672.7,30.9
2020-07-31T01:30:00Z,00000380,00000600,0002.41,0000.42,0000.12,0000.64,-000.20,0000.12,0000.00,-000.11,-000.05,23.7,02.0,0672.6,30.9
2020-07-31T01:31:00Z,00000380,00000600,0001.05,0000.43,0000.42,0000.52,0000.25,0000.04,0000.03,0000.13,0000.12,23.7,02.1,0672.7,30.9
2020-07-31T01:32:00Z,00000380,00000600,0001.21,0000.51,0000.09,-000.74,-000.30,0000.01,0000.03,-000.04,-000.09,23.7,02.1,0672.7,30.9
2020-07-31T01:33:00Z,00000380,00000600,0002.13,0000.70,0000.29,0000.23,-000.51,0000.14,-000.05,0000.18,0000.10,23.7,02.1,0672.7,30.9
2020-07-31T01:34:00Z,00000380,00000600,0000.91,0000.44,-000.02,0000.51,0000.02,0000.38,0000.09,0000.03,0000.11,23.8,02.1,0672.7,30.9
2020-07-31T01:35:00Z,00000380,00000600,0000.50,-000.03,0000.04,-000.19,-000.01,0000.27,0000.11,0000.16,-000.03,23.8,02.2,0672.7,30.9
2020-07-31T01:36:00Z,00000380,00000600,0001.13,0000.72,-000.07,-000.10,0000.04,0000.01,0000.10,0000.02,0000.08,23.8,02.2,0672.7,30.9
2020-07-31T01:37:00Z,00000380,00000600,0002.11,0000.31,-000.02,0000.14,-000.68,0000.29,0000.12,-000.02,0000.08,23.8,02.2,0672.7,30.9
2020-07-31T01:38:00Z,00000380,00000600,0001.12,0001.21,0000.59,-000.02,-000.38,-000.01,0000.04,0000.10,0000.02,23.7,02.2,0672.7,30.9
2020-07-31T01:39:00Z,00000380,00000600,0000.62,0000.55,0000.29,0000.18,-000.29,-000.15,0000.03,0000.13,0000.04,23.7,02.2,0672.7,30.9
2020-07-31T01:40:00Z,00000380,00000600,0000.73,-000.14,0000.21,0000.51,-000.04,-000.10,0000.17,0000.02,0000.13,23.7,02.3,0672.7,30.9
2020-07-31T01:41:00Z,00000380,00000600,0000.94,0000.48,-000.08,-000.07,-000.20,-000.29,-000.09,0000.04,-000.10,23.7,02.2,0672.7,30.9
2020-07-31T01:42:00Z,00000380,00000600,0000.75,0000.22,0000.04,0000.51,-000.09,0000.33,0000.05,-000.01,0000.04,23.7,02.3,0672.7,30.9
2020-07-31T01:43:00Z,00000380,00000600,-000.51,0000.67,0000.06,0000.10,0000.32,0000.42,-000.03,0000.08,0000.06,23.7,02.3,0672.7,30.9
2020-07-31T01:44:00Z,00000380,00000600,0001.41,0000.77,0000.51,-000.89,-000.28,-000.20,0000.04,-000.01,0000.07,23.7,02.3,0672.7,30.9
2020-07-31T01:45:00Z,00000380,00000600,-000.18,0000.29,0000.33,-000.64,-000.40,0000.31,0000.14,-000.01,-000.05,23.7,02.3,0672.7,30.9
2020-07-31T01:46:00Z,00000380,00000600,0001.45,0001.10,0000.63,-000.56,-000.11,0000.29,0000.17,0000.06,-000.03,23.7,02.3,0672.7,30.9
2020-07-31T01:47:00Z,00000380,00000600,0000.44,0000.40,-000.12,0000.01,0000.20,-000.30,-000.12,0000.08,0000.24,23.7,02.2,0672.7,30.9
2020-07-31T01:48:00Z,00000380,00000600,0000.30,-000.06,-000.16,0000.18,-000.44,-000.31,-000.01,0000.03,-000.10,23.7,02.3,0672.7,30.9
2020-07-31T01:49:00Z,00000380,00000600,0000.85,0000.17,0000.31,0000.59,0000.03,-000.26,0000.03,-000.07,-000.07,23.7,02.3,0672.7,30.9
2020-07-31T01:50:00Z,00000380,00000600,0000.15,0000.04,0000.20,-000.13,-000.07,0000.08,-000.08,0000.06,0000.08,23.8,02.2,0672.8,30.9
2020-07-31T01:51:00Z,00000380,00000600,0001.55,0000.36,0000.05,-000.34,0000.18,-000.19,0000.09,-000.01,0000.09,23.7,02.3,0672.7,30.9
2020-07-31T01:52:00Z,00000380,00000600,-000.59,0000.44,0000.38,-000.05,-000.02,-000.21,-000.05,0000.05,-000.10,23.7,02.3,0672.7,30.9
2020-07-31T01:53:00Z,00000380,00000600,0001.02,0000.41,0000.11,-000.55,0000.00,0000.10,0000.15,0000.09,0000.18,23.7,02.3,0672.7,30.9
2020-07-31T01:54:00Z,00000380,00000600,0001.57,0000.55,0000.80,-000.28,-000.25,0000.15,-000.08,-000.01,-000.03,23.7,02.3,0672.8,30.9
2020-07-31T01:55:00Z,00000380,00000600,0001.22,0000.41,0000.39,0000.12,-000.14,0000.53,0000.02,-000.10,-000.00,23.7,02.2,0672.8,30.9
2020-07-31T01:56:00Z,00000380,00000600,0001.81,0000.75,0000.11,-000.54,0000.20,0000.15,-000.02,0000.13,0000.03,23.7,02.1,0672.8,30.9
2020-07-31T01:57:00Z,00000380,40000600,,,,,,,,,,23.7,01.7,0672.8,30.9
2020-07-31T01:58:00Z,00000380,60000600,,,,,,,,,,23.8,01.9,0671.7,30.9
2020-07-31T01:59:00Z,00000380,20000600,,,,,,,,,,23.9,01.9,0671.7,30.9
2020-07-31T02:00:00Z,00000380,20000600,,,,,,,,,,23.9,01.9,0671.7,30.9
2020-07-31T02:01:00Z,00000380,20000600,,,,,,,,,,23.9,01.9,0671.7,30.9
2020-07-31T02:02:00Z,00000380,20000600,,,,,,,,,,23.9,01.9,0671.7,30.9
2020-07-31T02:03:00Z,00000380,60000600,,,,,,,,,,23.9,01.9,0671.8,30.9
2020-07-31T02:04:00Z,00000380,40000600,0000.29,-000.01,-000.01,0000.70,-000.21,0000.05,-000.03,0000.06,0000.16,23.8,01.8,0672.8,30.9
2020-07-31T02:05:00Z,00000380,00000600,0000.98,0000.29,0000.20,0001.25,-000.09,0000.40,0000.03,-000.09,-000.10,23.7,01.9,0672.8,30.9
2020-07-31T02:06:00Z,00000380,00000600,0000.83,0000.40,0000.60,0000.69,0000.11,-000.24,0000.10,0000.10,0000.02,23.7,01.9,0672.9,30.9
2020-07-31T02:07:00Z,00000380,00000600,-001.09,0000.59,-000.03,0000.50,-000.32,0000.04,0000.09,0000.10,0000.15,23.7,01.9,0672.9,30.9
2020-07-31T02:08:00Z,00000380,00000600,0001.03,0000.91,0000.11,0001.00,-000.07,-000.03,0000.00,0000.01,-000.14,23.7,01.9,0672.9,30.9
2020-07-31T02:09:00Z,00000380,00000600,0001.61,0000.42,0000.59,0000.42,-000.05,0000.20,-000.03,-000.00,0000.01,23.7,01.9,0672.9,30.9
2020-07-31T02:10:00Z,00000380,00000600,0001.11,0000.50,0000.36,0000.56,-000.03,-000.29,0000.02,0000.03,-000.03,23.7,02.0,0672.9,30.9
2020-07-31T02:11:00Z,00000380,00000600,0000.34,0000.29,0000.26,0000.31,0000.13,0000.20,-000.08,-000.12,0000.09,23.7,01.9,0672.9,30.9
2020-07-31T02:12:00Z,00000380,00000600,0001.01,0000.72,0000.20,0000.29,0000.33,0000.01,0000.03,0000.09,0000.00,23.6,01.8,0672.9,30.9
2020-07-31T02:13:00Z,00000380,00000600,0002.51,0000.54,0000.75,0001.36,-000.12,-000.15,0000.01,-000.05,0000.07,23.6,01.8,0672.9,30.9
2020-07-31T02:14:00Z,00000380,00000600,0000.61,0000.24,0000.80,0000.32,-000.17,0000.09,0000.00,0000.02,0000.04,23.6,01.9,0672.9,30.9
2020-07-31T02:15:00Z,00000380,00000600,0001.21,0000.87,0000.68,0001.36,0000.07,-000.26,-000.15,-000.03,0000.05,23.6,01.8,0672.9,30.9
2020-07-31T02:16:00Z,00000380,00000600,0001.28,0000.06,0000.49,-000.76,-000.42,0000.11,0000.01,0000.01,-000.10,23.6,01.8,0672.9,30.9
2020-07-31T02:17:00Z,00000380,00000600,0000.99,0000.44,-000.37,0000.03,-000.19,0000.04,0000.05,-000.06,0000.08,23.6,01.7,0672.9,30.9
2020-07-31T02:18:00Z,00000380,00000600,0000.69,0000.65,0000.58,-000.60,-000.05,0000.46,0000.14,0000.12,0000.05,23.6,01.7,0672.9,30.9
2020-07-31T02:19:00Z,00000380,00000600,0001.28,0000.67,0000.93,0001.18,-000.43,0000.32,-000.25,-000.02,-000.04,23.6,01.7,0672.9,30.9
2020-07-31T02:20:00Z,00000380,00000600,0000.58,0000.38,0000.58,0000.38,-000.21,0000.05,0000.16,-000.05,-000.03,23.7,01.7,0672.9,30.9
2020-07-31T02:21:00Z,00000380,00000600,0001.37,0000.37,0000.19,0001.03,-000.35,0000.01,0000.04,0000.21,0000.06,23.6,01.7,0672.9,30.9
2020-07-31T02:22:00Z,00000380,00000600,0000.30,0000.39,0000.59,0000.64,-000.09,-000.02,0000.08,-000.17,-000.08,23.6,01.7,0672.9,30.9
2020-07-31T02:23:00Z,00000380,00000600,-000.97,0000.28,0000.25,-000.28,0000.29,-000.43,0000.14,0000.21,0000.16,23.6,01.7,0672.9,30.9
2020-07-31T02:24:00Z,00000380,00000600,0001.70,0000.20,0000.63,0000.11,-000.20,-000.13,-000.01,0000.03,0000.09,23.6,01.8,0672.9,30.9
2020-07-31T02:25:00Z,00000380,00000600,0000.40,0000.73,0000.48,0000.57,-000.02,0000.06,0000.04,0000.01,-000.10,23.6,01.8,0672.9,30.9
2020-07-31T02:26:00Z,00000380,00000600,0000.49,0000.08,0000.65,0000.38,-000.30,0000.29,-000.01,0000.13,0000.03,23.6,01.7,0672.9,30.8
2020-07-31T02:27:00Z,00000380,00000600,0000.28,0000.34,0000.07,0001.31,-000.03,0000.00,0000.08,-000.20,0000.01,23.6,01.7,0672.9,30.8
2020-07-31T02:28:00Z,00000380,00000600,0000.14,0000.03,0001.13,0000.55,0000.17,0000.43,-000.17,0000.00,-000.02,23.6,01.7,0672.9,30.9
2020-07-31T02:29:00Z,00000380,00000600,0000.32,-000.13,0000.02,0000.23,0000.33,0000.37,0000.04,-000.01,0000.07,23.6,01.6,0673.0,30.9
2020-07-31T02:30:00Z,00000380,00000600,0000.54,0000.58,-000.38,0000.57,0000.19,-000.20,-000.12,0000.04,-000.15,23.6,01.6,0673.0,30.8
2020-07-31T02:31:00Z,00000380,00000600,0000.96,0000.44,-000.06,0000.03,0000.08,0000.04,-000.06,-000.02,0000.11,23.5,01.5,0673.0,30.8
2020-07-31T02:32:00Z,00000380,00000600,0000.38,0000.58,0000.48,0001.79,-000.13,-000.27,0000.08,-000.08,-000.06,23.5,01.6,0673.0,30.8
2020-07-31T02:33:00Z,00000380,00000600,0000.85,0000.10,0000.73,0000.13,-000.20,-000.14,0000.11,0000.05,0000.13,23.5,01.5,0673.0,30.8
2020-07-31T02:34:00Z,00000380,00000600,0000.69,0000.74,0000.29,0001.20,0000.01,0000.10,-000.12,0000.02,-000.15,23.5,01.5,0673.0,30.8
2020-07-31T02:35:00Z,00000380,01000600,0000.24,0000.48,0000.22,0000.12,0000.22,0000.10,-000.06,0000.04,0000.09,23.5,01.4,0673.0,30.8
2020-07-31T02:36:00Z,00000380,00000600,0000.92,0000.75,0000.23,0000.46,-000.04,-000.25,0000.02,-000.05,-000.01,23.5,01.4,0673.0,30.8
2020-07-31T02:37:00Z,00000380,00000600,0001.18,0000.57,-000.05,0001.17,0000.17,-000.45,0000.11,-000.03,0000.04,23.5,01.4,0673.0,30.8
2020-07-31T02:38:00Z,00000380,00010600,-000.35,0000.28,0000.37,0000.96,0000.14,0000.01,0000.14,0000.06,-000.10,23.5,01.5,0673.0,30.8
2020-07-31T02:39:00Z,00000380,00000600,-000.48,0000.28,0000.21,0000.88,0000.20,0000.13,0000.06,0000.19,0000.23,23.5,01.5,0673.0,30.8
2020-07-31T02:40:00Z,00000380,00000600,-000.08,0000.21,0000.53,0000.06,0000.04,0000.00,0000.06,0000.04,-000.09,23.4,01.5,0673.0,30.8
2020-07-31T02:41:00Z,00000380,00000600,0000.51,0000.43,0000.28,0001.09,-000.09,0000.29,-000.06,-000.03,0000.18,23.4,01.5,0673.0,30.8
2020-07-31T02:42:00Z,00000380,00000600,0001.18,0000.41,0000.57,0000.30,0000.24,0000.10,0000.18,0000.01,-000.15,23.4,01.5,0673.0,30.8
2020-07-31T02:43:00Z,00000380,00000600,-000.83,0000.07,0000.39,0000.64,-000.39,0000.10,-000.16,0000.11,0000.16,23.4,01.4,0673.0,30.8
2020-07-31T02:44:00Z,00000380,00000600,0000.75,0000.64,-000.25,0000.71,-000.04,-000.30,0000.04,0000.05,-000.13,23.4,01.5,0673.0,30.8
2020-07-31T02:45:00Z,00000380,00000600,0001.19,0000.39,0000.70,0000.64,0000.26,-000.02,-000.07,-000.09,0000.11,23.4,01.4,0673.0,30.8
2020-07-31T02:46:00Z,00000380,00000600,0000.64,0000.74,0000.52,-000.06,-000.01,0000.01,0000.12,-000.14,-000.08,23.4,01.5,0673.0,30.8
2020-07-31T02:47:00Z,00000380,00000600,0002.07,0000.66,0000.26,-000.10,-000.19,0000.15,-000.09,0000.10,0000.13,23.4,01.4,0673.0,30.9
2020-07-31T02:48:00Z,00000380,00000600,-000.14,0000.54,0000.83,0000.60,0000.08,0000.01,0000.06,0000.06,0000.05,23.5,01.5,0673.0,30.9
2020-07-31T02:49:00Z,00000380,00000600,-000.02,0000.45,-000.01,0000.66,-000.51,-000.13,0000.10,0000.03,-000.07,23.5,01.4,0673.0,30.9
2020-07-31T02:50:00Z,00000380,00000600,-000.24,0000.26,-000.23,0000.30,-000.15,0000.11,-000.07,-000.03,0000.03,23.5,01.3,0673.0,30.9
2020-07-31T02:51:00Z,00000380,00000600,0000.82,0000.57,0000.05,0000.22,-000.43,-000.49,-000.03,-000.07,0000.01,23.5,01.4,0673.0,30.9
2020-07-31T02:52:00Z,00000380,01000600,0000.31,-000.26,0000.06,0000.63,-000.17,-000.24,0000.05,0000.25,0000.04,23.5,01.3,0673.0,30.9
2020-07-31T02:53:00Z,00000380,00000600,0000.94,0000.53,-000.03,0001.08,0000.17,-000.26,-000.01,-000.05,0000.04,23.5,01.4,0673.0,30.9
2020-07-31T02:54:00Z,00000380,00000600,0001.27,0000.43,0000.85,0000.47,0000.12,-000.29,0000.16,-000.05,0000.09,23.5,01.4,0673.0,30.9
2020-07-31T02:55:00Z,00000380,00000600,0000.84,0000.48,0000.19,0000.86,0000.13,0000.17,-000.05,-000.02,-000.12,23.5,01.4,0673.0,30.9
2020-07-31T02:56:00Z,00000380,00000600,0001.18,0000.18,0000.03,0000.28,0000.46,0000.20,0000.02,0000.05,0000.03,23.5,01.4,0673.0,30.9
2020-07-31T02:57:00Z,00000380,40000600,,,,,,,,,,23.5,01.5,0673.0,30.8
2020-07-31T02:58:00Z,00000380,60000600,,,,,,,,,,23.6,01.3,0672.0,30.9
2020-07-31T02:59:00Z,00000380,20000600,,,,,,,,,,23.7,01.3,0671.9,30.9
2020-07-31T03:00:00Z,00000380,20000600,,,,,,,,,,23.7,01.3,0671.9,30.9
2020-07-31T03:01:00Z,00000380,20000600,,,,,,,,,,23.7,01.3,0671.9,30.9
2020-07-31T03:02:00Z,00000380,20000600,,,,,,,,,,23.7,01.3,0671.9,30.9
2020-07-31T03:03:00Z,00000380,60000600,,,,,,,,,,23.7,01.3,0671.9,30.9
2020-07-31T03:04:00Z,00000380,40000600,0000.56,0000.86,0000.29,-000.29,0000.38,0000.41,0000.04,-000.02,0000.04,23.6,01.2,0672.8,30.9
2020-07-31T03:05:00Z,00000380,01000600,-000.19,0000.96,0000.43,-000.99,0000.32,0000.14,0000.00,0000.10,0000.03,23.6,01.3,0673.0,30.9
2020-07-31T03:06:00Z,00000380,00000600,0001.92,0000.89,0000.54,-000.78,0000.39,0000.11,-000.05,-000.09,-000.02,23.6,01.3,0673.0,30.9
2020-07-31T03:07:00Z,00000380,00000600,0000.88,0000.16,0000.21,0000.34,0000.03,-000.06,0000.09,-000.10,0000.07,23.5,01.3,0672.9,30.8
2020-07-31T03:08:00Z,00000380,01000600,0000.08,0000.49,0000.00,-000.19,0000.35,0000.21,0000.03,0000.16,-000.02,23.5,01.3,0672.9,30.9
2020-07-31T03:09:00Z,00000380,00000600,0000.91,0000.64,0000.27,-000.22,0000.06,0000.11,-000.00,0000.02,-000.06,23.5,01.3,0673.0,30.9
2020-07-31T03:10:00Z,00000380,01000600,0000.71,0000.02,0000.04,-000.67,0000.14,0000.32,0000.12,0000.11,0000.12,23.5,01.3,0673.0,30.8